Weather in Poselok Sadovoye

Russia / Kaliningrad Oblast     54°28′38″N   21°55′18″E
temp.,
°C
wind,
m/s
gust,
m/s
humid.,
%
clouds,
%
prec.,
mm/h
press.,
hPa
HPBL,
m
15 august, mon
mon1523:00+20ese4118175 0.0 1013261
02:00+18ese378525 0.1 1012137
05:00+17e358922 0.0 101286
08:00+22ese477723 0.0 1012313
11:00+26se576142 0.0 1012851
14:00+29se465160 0.0 10111446
17:00+27se476755 0.1 1011528
20:00+22e49805 0.1 1010199
16 august, tue
tue1623:00+22ese3117558 0.0 1011309
02:00+22se4116899 0.0 1011348
05:00+19se387761 0.0 1011166
08:00+23se39685 0.0 1011314
11:00+27ese58525 0.0 1012753
14:00+29ese57463 0.0 10121392
17:00+27e56625 0.0 1012918
20:00+21e378126 0.0 1012142
17 august, wed
wed1723:00+22ese387429 0.3 1012225
02:00+18se33885 0.9 101356
05:00+17ese22895 0.0 101319
08:00+21e23785 0.0 1014207
11:00+26ese24596 0.0 1014758
14:00+29ese34497 0.0 10131435
17:00+28ene33575 0.0 1013693
20:00+23e37785 0.0 1014111
18 august, thu
thu1823:00+21se35765 0.0 101471
02:00+20ese22790 0.0 101411
05:00+18ene22830 0.0 101411
08:00+22e34740 0.0 1015222
11:00+26e45575 0.0 1015686
14:00+29ene45522 0.0 10141173
17:00+28ene46605 0.0 10141203
20:00+22e38805 0.0 1014185
19 august, fri
fri1923:00+20ese37815 0.0 1014128
02:00+19ese35822 0.1 101391
05:00+18ese35833 0.0 101490
08:00+23ese48725 0.0 1014269
11:00+27ese57520 0.0 1014892
14:00+29e56431 0.0 10131432
17:00+27ene58555 0.0 1012837
20:00+23e41172100 0.0 1012282